STARLINK-2505 (48411 NORAD) Tracking and Keplerian Element Data

This shows tracking and keplerian element data for the satellite.

Feedback or suggestion? Click here.




ElementValue
Catalog48411
NameSTARLINK-2505
Epoch Orbit369
Epoch Day214.91667824
Epoch Year2021
RAAN316.1661
Inclination53.0505
Eccentricity0.0003901
Argument of Perigee7.7134
Mean Anonmoly232.2285
Mean Motion15.73247748
Decay Rate-0.0002922
L11 48411U 21038BL 21214.91667824 -.00029220 00000-0 -20391-3 0 9990
L22 48411 53.0505 316.1661 0003901 7.7134 232.2285 15.73247748 3697

Live tracking and technical data element details for STARLINK-2505 (NORAD 48411). STARLINK-2505 can be tracked NOW for your location showing map with azimuth and elevation plus other details from your city location.

Track the satellite on the map from your city or location and see movement details for azimuth, elevation, latitude, longitude, range, height, and movement on the map or in text.







IsCatalogInMostPopularTable: catalog: 48411, numindb: 29
Update: records affected: 1



GetName: 48411 STARLINK-2505

Hit Count: updated at: Wed, 04 Aug 2021 00:08:22 GMT